OneWeb SL0161

operational
NORAD ID: 48053 Int'l Des: 2021-025 Owner: ONEWEBN Country: UK Constellation: oneweb
LEOCIRCULARPOLARONEWEB_TYPE

Über OneWeb SL0161

Beschreibung wird geladen...

Live-Position

3D-Globus wird geladen...

Nächste Überflüge

Höhenverlauf

Altitude vs Time

uPlot chart will show altitude changes over time

Zweizeiliger Elementsatz

1 48053U 21025M 25258.62490385 .00000380 00000-0 10063-2 0 9992
2 48053 87.9040 14.7707 0001863 104.2752 255.8584 13.13471424217462
Epoch: 15. Sept. 2025 • Age: 15 hours

Aktueller Status

Höhe 1220.6 km
Geschwindigkeit 7.25 km/s
Subsatellitenpunkt 70.53°N, 100.6°E
Startdatum 25. März 2021
Alter 4.4 years
Typ internet

Technische Details

Klassifizierung Payload
Masse 148.00 kg
Trockenmasse 140.00 kg
Gesamtmasse 148.00 kg
Länge 1.30 m
Durchmesser 1.00 m
Spannweite 5.00 m
Form Trapezoid+2 pan
Hersteller ONEWUS
Bus-Typ ARROW
Phasenstatus In Orbit
Besitzer/Staat ONEWEBN/UK

Große Konstellationen

Loading constellations...